Find Starlink 31645

NORAD ID: 59264 Int'l Des: 2024-050 Owner: SPXS Country: US Constellation: starlink operational
LEOCIRCULAR

現在のビュー

3D地球を読み込み中...

About Starlink 31645

Starlink 31645 (NORAD 59264) is a starlink constellation satellite (v2 mini) launched Mar 19, 2024 by SPXS of US. It operates in LEO, CIRCULAR orbit with a mass of 730.00 kg.

次回通過

Passes for default location (London). Set your location on the main map for personalized predictions.

高度履歴

Loading altitude history...

軌道要素

1 59264U 24050L 26237.09081528 .00018890 00000-0 56873-3 0 9998
2 59264 53.1576 117.2203 0001680 83.8934 276.2260 15.34404007136352
Epoch: Aug 25, 2026 • Age: 16 hours

現在のステータス

高度 464.1 km
遠地点 / 近地点 N/A
速度 7.64 km/s
衛星直下点 -3.13°S, 43.18°E
打ち上げ日 Mar 19, 2024
運用期間 2.4 years
タイプ internet

技術仕様

分類 Payload
質量 730.00 kg
乾燥質量 700.00 kg
総質量 730.00 kg
長さ 0.30 m
直径 4.10 m
スパン 29.00 m
形状 Box + pan
製造者 SPXS
バスタイプ Starlink V2M
フェーズステータス In Orbit
所有者/国 SPXS/US

Most Searched